Abilene Dyess, TX

9:12 PM CST on December 11, 2017 (GMT -0600)
Dyess Air Force Base

Weather History for KDYS - September, 2013

Change the Weather History Date:

Thursday, September 26, 2013

  Actual Average Record
Temperature  
Mean Temperature 78 °F -  
Max Temperature 90 °F 84 °F 94 °F (2011)
Min Temperature 66 °F 61 °F 39 °F (2000)
Cooling Degree Days 12    
Growing Degree Days 28 (Base 50)    
Moisture  
Dew Point 58 °F    
Average Humidity 50    
Maximum Humidity 77    
Minimum Humidity 32    
Precipitation  
Precipitation 0.00 in - - ()
Sea Level Pressure  
Sea Level Pressure 29.71 in    
Wind  
Wind Speed 14 mph (South)    
Max Wind Speed 23 mph    
Max Gust Speed 32 mph    
Visibility 10 miles    
Events      
Averages and records for this station are not official NWS values.
T = Trace of Precipitation, MM = Missing Value Source: NWS Daily Summary

Daily Weather History Graph

Daily Weather History Graph

Search for Another Location

Airport or City:

Trip Planner

Search our weather history database for the weather conditions in past years. The results will help you decide how hot, cold, wet, or windy it might be!

Date:

Astronomy

Sep. 26, 2013 Rise Set
Actual Time 7:30 AM CDT 7:30 PM CDT
Civil Twilight 7:05 AM CDT 7:54 PM CDT
Nautical Twilight 6:37 AM CDT 8:23 PM CDT
Astronomical Twilight 6:08 AM CDT 8:51 PM CDT
Moon No Moon Rise 2:06 PM CDT (9/26)
Length of Visible Light 12h 48m
Length of Day
11h 59m
Waning Gibbous, 54% of the Moon is Illuminated
Sep 26
Waning Gibbous
Sep 26
Last Quarter
Oct 4
New
Oct 11
First Quarter
Oct 18
Full

Hourly Weather History & Observations

Time (CDT) Temp. Heat Index Dew Point Humidity Pressure Visibility Wind Dir Wind Speed Gust Speed Precip Events Conditions
12:58 AM 68.2 °F - 59.0 °F 72% 29.68 in 10.0 mi South 6.9 mph - N/A   Clear
1:58 AM 66.0 °F - 58.6 °F 77% 29.67 in 10.0 mi South 5.8 mph - N/A   Clear
2:58 AM 68.2 °F - 59.0 °F 72% 29.67 in 10.0 mi South 8.1 mph - N/A   Clear
3:58 AM 74.5 °F - 57.2 °F 55% 29.64 in 10.0 mi South 17.3 mph 25.3 mph N/A   Clear
4:58 AM 73.4 °F - 57.9 °F 58% 29.64 in 10.0 mi South 20.7 mph - N/A   Clear
5:58 AM 72.7 °F - 57.7 °F 59% 29.65 in 10.0 mi South 19.6 mph 24.2 mph N/A   Clear
6:58 AM 72.0 °F - 57.4 °F 60% 29.68 in 10.0 mi South 18.4 mph 25.3 mph N/A   Clear
7:58 AM 71.8 °F - 57.9 °F 62% 29.71 in 10.0 mi South 18.4 mph - N/A   Clear
8:58 AM 74.3 °F - 59.9 °F 61% 29.73 in 10.0 mi South 23.0 mph 32.2 mph N/A   Clear
9:58 AM 77.7 °F - 59.5 °F 53% 29.75 in 10.0 mi South 18.4 mph 27.6 mph N/A   Clear
10:58 AM 81.0 °F 81.7 °F 60.4 °F 50% 29.76 in 10.0 mi South 23.0 mph 28.8 mph N/A   Clear
11:58 AM 84.0 °F 84.2 °F 60.8 °F 45% 29.77 in 10.0 mi SSW 19.6 mph 29.9 mph N/A   Clear
12:58 PM 86.7 °F 87.0 °F 61.7 °F 43% 29.75 in 10.0 mi SSW 20.7 mph 25.3 mph N/A   Clear
1:58 PM 88.9 °F 88.0 °F 58.8 °F 36% 29.72 in 10.0 mi South 17.3 mph - N/A   Clear
2:31 PM 89.6 °F 89.5 °F 60.8 °F 38% 29.84 in 10.0 mi South 17.3 mph 28.8 mph N/A   Clear
2:58 PM 89.4 °F 88.7 °F 59.4 °F 36% 29.70 in 10.0 mi SSE 15.0 mph 25.3 mph N/A   Clear
3:58 PM 89.8 °F 88.4 °F 56.8 °F 33% 29.68 in 10.0 mi SSE 18.4 mph 26.5 mph N/A   Clear
4:58 PM 89.4 °F 87.7 °F 55.9 °F 32% 29.68 in 10.0 mi SE 18.4 mph 27.6 mph N/A   Clear
5:58 PM 88.3 °F 86.9 °F 57.0 °F 34% 29.68 in 10.0 mi SSE 16.1 mph 23.0 mph N/A   Clear
6:58 PM 85.6 °F 84.5 °F 56.8 °F 37% 29.69 in 10.0 mi SSE 16.1 mph - N/A   Clear
7:58 PM 82.0 °F 81.6 °F 56.3 °F 41% 29.70 in 10.0 mi SE 12.7 mph - N/A   Clear
8:58 PM 78.8 °F - 56.5 °F 46% 29.72 in 10.0 mi SSE 11.5 mph - N/A   Clear
9:58 PM 76.8 °F - 55.2 °F 47% 29.72 in 10.0 mi SSE 10.4 mph - N/A   Clear
10:58 PM 73.9 °F - 53.8 °F 49% 29.73 in 10.0 mi SSE 11.5 mph - N/A   Clear
11:58 PM 74.8 °F - 54.3 °F 49% 29.73 in 10.0 mi SSE 12.7 mph - N/A   Clear